Regional Weather Roundup
Issued by NWS

Home | Current Version | Previous Version | Text Only | Print | Product List | Glossary Off
Versions: 1 2 3 4 5 6 7 8 9 10 11 12 13 14 15 16 17 18 19 20 21 22 23 24 25 26 27 28 29 30 31 32 33 34 35 36 37 38 39 40 41 42 43 44 45 46 47 48 49 50

000
ASUS43 KIND 291709
RWRIN

WEATHER ROUNDUP FOR INDIANA
NATIONAL WEATHER SERVICE INDIANAPOLIS IN
100 PM EDT SUN MAY 29 2016

NOTE: "FAIR" INDICATES FEW OR NO CLOUDS BELOW 12,000 FEET WITH NO
SIGNIFICANT WEATHER AND/OR OBSTRUCTIONS TO VISIBILITY.

* - STATION DOES NOT REPORT WEATHER SUCH AS PRECIPITATION OR FOG.

+ - STATION NOT QUALITY CONTROLLED BY THE NATIONAL WEATHER SERVICE.
    USE DATA WITH CAUTION...ESPECIALLY DEWPOINT AND RELATIVE
    HUMIDITY OBSERVATIONS.

INZ001>003-010>013-019-020-291800-
NORTHWEST INDIANA

CITY           SKY/WX    TMP DP  RH WIND       PRES   REMARKS
GARY /AIRPORT/ PTSUNNY   81  66  61 SW20G32   30.02S
KNOX *+          N/A     81  41  24 W17         N/A
LA PORTE +     MOSUNNY   82  59  45 SW17G24   30.03F
MICHIGAN CITY+ PTSUNNY   79  59  50 SW15G24   30.02S
MONTICELLO +   MOSUNNY   83  47  28 SW13G22   30.04S
RENSSELAER +   MOSUNNY   82  54  36 SW17G26   30.05S
VALPARAISO     MOSUNNY   81  58  45 W18G28    30.03F

$$

LMZ046-743>745-291800-
SOUTHERN LAKE MICHIGAN

STATION/POSITION TIME  TEMP    WIND        PRES    WAVE
                       AIR SEA DIR/SP/G            HT
                 (UTC) (F)     (DEG/KT/KT) (MB)    (FT)
BURNS HARBOR     1600   77     220/ 19/ 24 1016.6F
MICHIGAN CITY    1600   76     190/ 18/ 20   N/A
5NW MICH CITY    1700   65 57  260/ 10/ 12   N/A     1

$$

INZ004-005-014>016-021>024-291800-
NORTH CENTRAL INDIANA

CITY           SKY/WX    TMP DP  RH WIND       PRES   REMARKS
ELKHART          N/A     82  64  54 MISG      30.02F
GOSHEN         PTSUNNY   82  60  47 SW17G25   30.02F
LOGANSPORT +   PTSUNNY   82  59  44 SW13G22   30.06F
PERU/GRISSOM   PTSUNNY   82  63  51 SW13G23   30.04F
ROCHESTER +    MOSUNNY   82  61  47 SW16G22   30.05S
SOUTH BEND     MOSUNNY   83  56  39 SW17G26   30.02F
WARSAW +       PTSUNNY   81  61  50 SW13      30.04F

$$

INZ006>009-017-018-025>027-291800-
NORTHEAST INDIANA

CITY           SKY/WX    TMP DP  RH WIND       PRES   REMARKS
ANGOLA *+        N/A     82  79  89 SW12      30.03F
AUBURN +       SUNNY     82  63  51 SW9       30.04F
FORT WAYNE     PTSUNNY   86  62  44 SW14G22   30.04F
HUNTINGTON +   PTSUNNY  N/A N/A N/A W10       30.04F

$$

INZ028-029-035-036-043>045-051>053-291800-
WEST CENTRAL INDIANA

CITY           SKY/WX    TMP DP  RH WIND       PRES   REMARKS
CRAWFORDSVL +  PTSUNNY   79  62  54 SW10      30.08S
GREENCASTLE +  PTSUNNY   79  68  69 CALM      30.09S
LAFAYETTE      MOSUNNY   80  59  48 W12G18    30.05F
TERRE HAUTE    PTSUNNY   81  63  54 W5G16     30.08F

$$

INZ030>032-037>040-046>048-054>057-064-065-291800-
CENTRAL INDIANA

CITY           SKY/WX    TMP DP  RH WIND       PRES   REMARKS
CP ATTERBURY + MOSUNNY   81  66  61 SW9       30.09S
COLUMBUS       MOSUNNY   82  66  57 SW16      30.08F
FISHERS *+     MOSUNNY   84  68  58 W7        30.07F
FRANKFORT +      N/A     84  46  25 SW10G20   30.08F
GREENWOOD *+   MOSUNNY   81  64  57 W7        30.09S
INDIANAPOLIS   MOSUNNY   81  66  60 SW9       30.06F
-EAGLE CREEK   MOSUNNY   81  63  54 VRB6      30.07S
KOKOMO *+      MOSUNNY   82  63  51 SW15G21   30.05F
MARION +       MOSUNNY   83  62  48 SW12G21   30.06F
SHELBYVILLE    MOSUNNY   84  64  50 W10       30.07F
ZIONSVILLE +   MOSUNNY   81  64  57 W8        30.08F

$$

INZ033-034-041-042-049-050-058-059-291800-
EAST CENTRAL INDIANA

CITY           SKY/WX    TMP DP  RH WIND       PRES   REMARKS
MUNCIE         SUNNY     85  64  49 SW9       30.07F

$$

INZ060-061-067>069-081>083-085>088-291800-
SOUTHWEST INDIANA

CITY           SKY/WX    TMP DP  RH WIND       PRES   REMARKS
EVANSVILLE     PTSUNNY   83  67  58 S7        30.10R
HUNTINGBURG *+ MOSUNNY   82  68  61 SW9       30.09F
WASHINGTON +   CLOUDY    81  68  65 SW6       30.08S

$$

INZ062-063-066-070>080-084-089>092-291800-
SOUTH CENTRAL AND SOUTHEAST INDIANA

CITY           SKY/WX    TMP DP  RH WIND       PRES   REMARKS
BEDFORD +      MOSUNNY   81  73  78 SW6       30.09R
BLOOMINGTON    MOSUNNY   82  63  52 VRB5      30.09S
MADISON *+     SUNNY     84  63  48 SW7       30.11F
NORTH VERNON + MOSUNNY   84  72  65 CALM      30.10F
SEYMOUR +      SUNNY     84  66  54 SW10      30.08F

$$




USA.gov is the U.S. government's official web portal to all federal, state and local government web resources and services.